STARLINK-34305

Last updated on Tue Sep 16 2025 00:02:07 GMT+0000 (Coordinated Universal Time)

1 65375U 25190AA 25258.54960146 -.00339854 00000+0 -39162-2 0 9996 2 65375 53.1596 265.0039 0000652 71.1212 288.9874 15.62409919 2890
UTC large
Height (km)
Speed (km/s)
/
Latitude / Longitude
Inclination (degrees)
Orbital Period (minutes)
Azimuth
Elevation
Range (km)
Doppler Factor

Next 0 passes for location: London (51.5072 / 0.1276)

Sorry there are no passes over London.